Flag for Norway Weather past 2 weeks in Fjerdingby, Norway

Now
46 °F

Cool.


Feels Like: 46 °F
Forecast: 42 / 58 °F
Wind: 2 mph from West

Location: Oslo-Blindern

Current Time: May 30, 2015 at 10:45:52 PM

Latest Report: May 30, 2015 at 10:00 PM


Visibility: N/A

Pressure: 29.47 "Hg

Humidity: 87%

Dew point: 42 °F

Location of FjerdingbyLocation

Historic Weather in Fjerdingby — Graph

°F

Fjerdingby temperature yesterday

Maximum temperature yesterday: 58 °F (at 4:00 PM)
Minimum temperature yesterday: 42 °F (at 4:00 AM)
Average temperature yesterday: 51 °F

Past Weeks' High & Low Weather Summary

 TemperatureHumidityPressure
High64 °F (May 27, 6:00 PM)98% (May 17, 12:00 AM)30.03 "Hg (May 17, 12:00 AM)
Low39 °F (May 18, 6:00 AM)25% (May 27, 6:00 PM)29.38 "Hg (May 29, 12:00 AM)
Average49 °F71%29.74 "Hg
* Reported May 15 9:00 PM — May 30 9:00 PM, Fjerdingby, Weather by CustomWeather, © 2015

Note: Actual official high and low records may vary slightly from our data, if they occured in-between our weather recording intervals... More about our weather records

Advertising

Fjerdingby weather history for previous 24 hours

 ConditionsComfort  
Time TempWeatherWind HumidityBarometerVisibility
9:00 PM
Sat, May 30
47 °FCool.3 mph84%29.47 "HgN/A
8:00 PM47 °FCool.5 mph86%29.47 "HgN/A
7:00 PM47 °FCool.5 mph88%29.47 "HgN/A
6:00 PM47 °FCool.5 mph91%29.47 "HgN/A
5:00 PM47 °FOvercast.5 mph91%29.47 "Hg34 mi
4:00 PM47 °FCool.3 mph90%29.50 "HgN/A
3:00 PM46 °FCool.5 mph88%29.50 "HgN/A
2:00 PM46 °FOvercast.5 mph86%29.50 "Hg34 mi
1:00 PM45 °FCool.5 mph86%29.50 "HgN/A
12:00 PM45 °FQuite cool.5 mph84%29.50 "HgN/A
11:00 AM45 °FRain. Overcast.1 mph92%29.53 "Hg9 mi
10:00 AM45 °FQuite cool.5 mph86%29.54 "HgN/A
9:00 AM45 °FQuite cool.3 mph86%29.54 "HgN/A
8:00 AM45 °FRain. Overcast.5 mph89%29.56 "Hg9 mi
7:00 AM45 °FQuite cool.3 mph92%29.56 "HgN/A
6:00 AM45 °FQuite cool.3 mph89%29.57 "HgN/A
4:00 AM45 °FCool.2 mph91%29.59 "HgN/A
3:00 AM46 °FCool.2 mph88%29.60 "HgN/A
2:00 AM46 °FLight rain. Overcast.2 mph87%29.61 "Hg12 mi
1:00 AM47 °FCool.2 mph82%29.62 "HgN/A
12:00 AM47 °FCool.3 mph82%29.63 "HgN/A
10:00 PM
Fri, May 29
49 °FCool.6 mph76%29.62 "HgN/A
Weather by CustomWeather, © 2015

See weather overviewHow to use our weather pages